Regional Weather Roundup
Issued by NWS

Home | Current Version | Previous Version | Graphics & Text | Print | Product List | Glossary On
Versions: 1 2 3 4 5 6 7 8 9 10 11 12 13 14 15 16 17 18 19 20 21 22 23 24 25 26 27 28 29 30 31 32 33 34 35 36 37 38 39 40 41 42 43 44 45 46 47 48 49 50
000
ASUS43 KDMX 190001
RWRIA

WEATHER ROUNDUP FOR IOWA
NATIONAL WEATHER SERVICE DES MOINES IA
600 PM CST SAT NOV 18 2017

NOTE: "FAIR" INDICATES FEW OR NO CLOUDS BELOW 12,000 FEET WITH NO
SIGNIFICANT WEATHER AND/OR OBSTRUCTIONS TO VISIBILITY.

* - THESE STATIONS ARE NOT NWS STATIONS...THUS NOT UNDER NWS
QUALITY CONTROL.  THEY ALSO DO NOT REPORT WEATHER SUCH
AS PRECIPITATION OR FOG.

IAZ001>003-012>014-020>022-031>034-043>046-190100-
   NORTHWEST IOWA

CITY           SKY/WX    TMP DP  RH WIND       PRES   REMARKS
CARROLL *      CLEAR     34  23  64 NW16      30.05R WCI  23
DENISON *      CLEAR     34  23  64 NW16      30.09R WCI  23
LE MARS *      PTCLDY    32  19  59 NW9G16    30.11R WCI  24
ORANGE CITY *  CLEAR     30  19  64 NW16      30.08R WCI  19
SHELDON *      CLEAR     30  16  55 NW13      30.06R WCI  20
SIOUX CITY     PTCLDY    33  20  58 NW15      30.12R WCI  23
6HR MIN TEMP:  33; 6HR MAX TEMP:  41; 6HR PCP: TRACE;

SPENCER        PTCLDY    30  14  51 NW17      30.04R WCI  18
6HR MIN TEMP:  30; 6HR MAX TEMP:  40;

STORM LAKE *   CLEAR     30  21  69 NW14      30.04R WCI  20
$$

IAZ055>058-069>071-079>083-090>094-190100-
   SOUTHWEST IOWA

CITY           SKY/WX    TMP DP  RH WIND       PRES   REMARKS
ATLANTIC *     CLEAR     36  27  69 NW14      30.07R WCI  27
AUDUBON *      CLEAR     36  25  64 NW10G20   30.06R WCI  28
CLARINDA *       N/A     39  27  60 NW13G21   30.11  WCI  32
COUNCIL BLFS * CLEAR     37  27  65 NW12G18   30.10R WCI  30
CRESTON *      CLEAR     36  28  75 NW15      30.05R WCI  26
HARLAN  *      CLEAR     34  27  75 NW15      30.11R WCI  24
LAMONI         CLEAR     39  27  62 NW20G25   30.02R WCI  29
6HR MIN TEMP:  39; 6HR MAX TEMP:  48;

RED OAK *      CLEAR     37  27  65 NW12      30.09R WCI  30
SHENANDOAH *   CLEAR     39  25  56 NW16G23   30.11R WCI  30
$$

IAZ047>049-059>061-072>074-084-190100-
   CENTRAL IOWA

CITY           SKY/WX    TMP DP  RH WIND       PRES   REMARKS
AMES           CLEAR     34  24  67 NW21      30.00R WCI  22
6HR MIN TEMP:  34; 6HR MAX TEMP:  44;

ANKENY *       CLEAR     36  25  64 NW18      30.01R WCI  25
BOONE *        CLEAR     34  23  64 NW17      30.00R WCI  23
CHARITON *     CLEAR     37  28  70 NW13      29.99R WCI  29
DES MOINES     PTCLDY    38  26  62 NW16G24   30.00R WCI  29
6HR MIN TEMP:  38; 6HR MAX TEMP:  46;

GRINNELL*      CLEAR     33  26  76 NW24G30   29.96R WCI  20
KNOXVILLE *    CLEAR     37  25  60 NW14G22   29.96R WCI  29
MARSHALLTOWN   CLEAR     32  24  72 NW25G35   29.96R WCI  19
6HR MIN TEMP:  32; 6HR MAX TEMP:  44;

NEWTON *       CLEAR     34  27  75 NW21      29.97R WCI  22
PELLA *        CLEAR     35  28  75 NW12      29.98R WCI  27
$$

IAZ004>006-015-016-023>025-035-036-190100-
   NORTH CENTRAL IOWA

CITY           SKY/WX    TMP DP  RH WIND       PRES   REMARKS
ALGONA *       CLEAR     30  21  69 NW13      30.01R WCI  20
CLARION *      PTCLDY    30  25  80 NW16      30.00R WCI  19
ESTHERVILLE    CLEAR     28  19  69 NW14      30.02R WCI  17
6HR MIN TEMP:  27; 6HR MAX TEMP:  36;

FORT DODGE *   CLEAR     32  22  66 NW7       30.02R WCI  26
MASON CITY     CLEAR     29  20  69 NW22G28   29.98R WCI  15
6HR MIN TEMP:  29; 6HR MAX TEMP:  39;

FOREST CITY *    N/A     30  23  74 NW16G24   29.98R WCI  19
WEBSTER CITY * CLEAR     32  23  69 NW16      29.99R WCI  21
IOWA FALLS *     N/A     32  25  76 NW21G26   29.97R WCI  20
$$

IAZ007>011-017>019-026>030-037>042-050>054-066-190100-
   NORTHEAST IOWA

CITY           SKY/WX    TMP DP  RH WIND       PRES   REMARKS
CEDAR RAPIDS   CLEAR     35  27  72 NW23G36   29.88R WCI  23
6HR MIN TEMP:  35; 6HR MAX TEMP:  44;

CHARLES CITY * CLEAR     30  25  80 NW18G25   29.92R WCI  18
CLINTON *      CLEAR     34  31  88 NW13      29.80R WCI  25
DECORAH *      CLOUDY    34  25  69 NW8G20    29.84R WCI  27
DUBUQUE        CLEAR     37  29  72 NW16G24   29.80R WCI  28
6HR MIN TEMP:  37; 6HR MAX TEMP:  40;

MONTICELLO *   CLEAR     37  28  70 NW16G25   29.84R WCI  28
OELWEIN *      CLOUDY    34  28  80 NW24G31   29.88R WCI  21
WATERLOO       PTCLDY    31  22  69 NW24G32   29.91R WCI  17
6HR MIN TEMP:  31; 6HR MAX TEMP:  43;

$$

IAZ064-065-067-068-078-190100-
   EAST CENTRAL IOWA

CITY           SKY/WX    TMP DP  RH WIND       PRES   REMARKS
DAVENPORT      CLEAR     38  31  76 W13G21    29.84R WCI  30
6HR MIN TEMP:  37; 6HR MAX TEMP:  41;

IOWA CITY      CLEAR     39  28  64 NW24G30   29.90R WCI  28
6HR MIN TEMP:  39; 6HR MAX TEMP:  46;

MT. PLEASANT * CLEAR     39  29  68 W18G30    29.89R WCI  30
MUSCATINE *    CLEAR     39  30  70 NW21G31   29.87R WCI  29
QUAD CITIES    CLEAR     41  32  70 NW17G25   29.81R
6HR MIN TEMP:  40; 6HR MAX TEMP:  42;

$$

IAZ062-063-075>077-085>089-095>099-190100-
   SOUTHEAST IOWA

CITY           SKY/WX    TMP DP  RH WIND       PRES   REMARKS
BURLINGTON     CLEAR     40  32  73 NW12G21   29.86R WCI  33
6HR MIN TEMP:  39; 6HR MAX TEMP:  43; 6HR PCP: TRACE;

FAIRFIELD *    CLEAR     37  28  70 NW21G30   29.91R WCI  27
FORT MADISON * CLEAR     39  34  81 NW21G26   29.89R WCI  29
KEOKUK *       CLEAR     41  30  65 NW20G29   29.88R
OSKALOOSA *      N/A     35  29  79 NW14G20   29.95R WCI  26
OTTUMWA        CLEAR     38  27  64 NW24G32   29.95R WCI  27
6HR MIN TEMP:  37; 6HR MAX TEMP:  45;

WASHINGTON *   CLEAR     37  32  81 NW22G28   29.91R WCI  27
$$

ABBREVIATIONS USED IN REMARKS
   TC - TEMPERATURES IN CELSIUS
  WCI - WIND CHILL INDEX
   HX - HEAT INDEX
  VSB - VISIBILITY
$$





USA.gov is the U.S. government's official web portal to all federal, state and local government web resources and services.